Regional Weather Roundup
Issued by NWS Sterling, VA

Home | Current Version | Previous Version | Graphics & Text | Print | Product List | Glossary On
Versions: 1 2 3 4 5 6 7 8 9 10 11 12 13 14 15 16 17 18 19 20 21 22 23 24 25 26 27 28 29 30 31 32 33 34 35 36 37 38 39 40 41 42 43 44 45 46 47 48 49 50
000
ASUS41 KLWX 281510
RWRLWX

REGIONAL WEATHER ROUNDUP
NATIONAL WEATHER SERVICE BALTIMORE MD/WASHINGTON DC
1100 AM EDT MON JUL 28 2014

Note: "FAIR" indicates few or no clouds below 12,000 feet
with no significant weather and/or obstructions to visibility.
 TC=TEMPERATURE CELSIUS

 * =Non NWS site. Station does not report precipitation (e.g. rain,
    snow, etc.), thunder, or fog.

DCZ001-MDZ009-015-VAZ040>042-051-053>054-281600-
WASHINGTON METRO
  /KDAA//-FT BELVOIR

CITY           SKY/WX    TMP DP  RH WIND       PRES   REMARKS
WASHINGTON NAT MOSUNNY   83  59  44 NW18G29   29.66R
DULLES         PTSUNNY   79  58  48 NW16G30   29.68S
ANDREWS AFB    MOSUNNY   80  60  49 NW17G28   29.67R
QUANTICO       MOSUNNY   82  61  48 NW10      29.68R
COLLEGE PARK*  MOSUNNY   82  61  47 W12G24    29.65R
LEESBURG*      MOSUNNY   79  63  57 W17G24    29.69R
MANASSAS*      PTSUNNY   79  61  53 W10       29.68
GAITHERSBURG*  PTSUNNY   77  63  61 W10       29.71R

$$

MDZ006>007-011-014-281600-
BALTIMORE METRO

CITY           SKY/WX    TMP DP  RH WIND       PRES   REMARKS
BWI AIRPORT    MOSUNNY   81  60  48 W21G30    29.64R
MD SCIENCE CTR   N/A     80  61  52 MISG      29.64R
MARTIN STATE   MOSUNNY   81  68  65 W20G29    29.64R
ANNAPOLIS      SUNNY     82  61  48 W10G24    29.63R
FORT MEADE*    MOSUNNY   81  61  50 W17G24    29.67R

$$

MDZ012-015-019>023-281600-
MARYLAND EASTERN SHORE

CITY           SKY/WX    TMP DP  RH WIND       PRES   REMARKS
OCEAN CITY     MOSUNNY   86  70  58 W8G21     29.62R HX  90
SALISBURY      NOT AVBL
BAY BRIDGE AP*   N/A     81  59  47 W15G22    29.64R
CAMBRIDGE*     SUNNY     84  63  48 W12G22    29.63S
EASTON*        MOSUNNY   84  68  58 W10G17    29.67R

$$

MDZ017>025-281600-
SOUTHERN MARYLAND

CITY           SKY/WX    TMP DP  RH WIND       PRES   REMARKS
PATUXENT RIVER MOSUNNY   85  62  46 W13G22    29.64R
ST INIGOES     SUNNY     84  64  50 W13       29.65R
LEONARDTOWN*   MOSUNNY   81  61  50 W12G17    29.67R

$$

MDZ003>005-281600-
NORTH CENTRAL MARYLAND

CITY           SKY/WX    TMP DP  RH WIND       PRES   REMARKS
FREDERICK*     PTSUNNY   79  64  61 W15       29.69R
HAGERSTOWN APT PTSUNNY   73  58  59 W14G22    29.68R
WESTMINSTER*   MOSUNNY   75  64  69 W8G17     29.67S

$$

MDZ501>502-281600-
WESTERN MARYLAND

CITY           SKY/WX    TMP DP  RH WIND       PRES   REMARKS
OAKLAND*       CLOUDY    61 N/A N/A W15G25    29.79S
CUMBERLAND*    MOSUNNY   75  57  53 W10G17    29.76R

$$

VAZ025>031-281600-
SHENANDOAH VALLEY

CITY           SKY/WX    TMP DP  RH WIND       PRES   REMARKS
WINCHESTER*    MOSUNNY   77  57  50 W18G25    29.71R
STAUNTON*      CLOUDY    75  56  51 W8        29.78R

$$

WVZ021-048>050-054>055-281600-
EASTERN WEST VIRGINIA PANHANDLE

CITY           SKY/WX    TMP DP  RH WIND       PRES   REMARKS
MARTINSBURG    CLOUDY    76  57  51 NW10      29.70R
PETERSBURG*    CLOUDY    71  49  44 W18G24    29.75R

$$

VAZ036>039-050-281600-
CENTRAL FOOTHILLS

CITY           SKY/WX    TMP DP  RH WIND       PRES   REMARKS
CHARLOTTESVILL PTSUNNY   78  57  48 VRB7      29.72R
ORANGE*        CLOUDY    79  59  50 W10       29.72R

$$

VAZ055>057-281600-
NORTH AND CENTRAL PIEDMONT

CITY           SKY/WX    TMP DP  RH WIND       PRES   REMARKS
FREDERICKSBRG* SUNNY     84  59  42 W16G23    29.67R
STAFFORD*      PTSUNNY   81  64  55 NW7       29.72R

$$

NCZ024-NYZ072-PAZ021-071-VAZ022-071-281600-
OTHER REGIONAL OBSERVATIONS

CITY           SKY/WX    TMP DP  RH WIND       PRES   REMARKS
NEW YORK CITY  CLOUDY    73  66  78 W7        29.58S
PHILADELPHIA   MOSUNNY   79  65  62 NW14      29.60R
PITTSBURGH     LGT RAIN  64  59  83 SW10      29.74R
ROANOKE        PTSUNNY   77  55  46 NW23G32   29.82R
RICHMOND       MOSUNNY   87  60  40 W15G25    29.70R
RALEIGH        MOSUNNY   82  64  54 W10       29.80F

$$

ANZ530>537-281600-
MARINE OBSERVATIONS

STATION/POSITION TIME  TEMP    WIND        PRES
                       AIR SEA DIR/SP/G
                 (UTC) (F)     (DEG/KT/KT) (MB)
THOMAS PT LIGHT  1500   80 79  290/ 18/ 21 1003.9R
BALT KEY BRIDGE  1500   78     270/ 19/ 22 1003.3R
COVE POINT       1500   81     310/ 13/ 17 1003.6R
LEWISETTA        1500   83 80  280/ 17/ 22 1004.0S
SOLOMONS ISLAND  1500      80                N/A
PINEY POINT      1500          310/ 17/ 18   N/A

$$



USA.gov is the U.S. government's official web portal to all federal, state and local government web resources and services.